Simultaneous Nadir Overpasses (SNOs) Predictions

Prediction of SNOs between METOP-A and NOAA-19 Satellite Orbit:

Table of predicted SNOs for the next 14.0 days since TLE Epoch: 3/13/2020
Index Date (METOP-A) Time (METOP-A) Lat,Lon (METOP-A) SZA (METOP-A ) Date (NOAA-19) Time (NOAA-19) Lat,Lon (NOAA-19) SZA (NOAA-19 ) Distance(km) Time Diff (sec)
1 03/17/2020 04:46:19 -80.38, -57.99 98.32 03/17/2020 04:45:05 -80.38, -58.12 98.33 2.43 74
2 03/17/2020 05:37:00 80.37, 109.22 81.66 03/17/2020 05:36:00 80.37, 109.30 81.66 1.41 60
3 03/17/2020 06:27:41 -80.37, -83.46 98.36 03/17/2020 06:27:05 -80.36, -83.40 98.37 1.09 36
4 03/17/2020 07:18:22 80.36, 83.76 81.62 03/17/2020 07:18:01 80.37, 83.69 81.63 2.33 21
5 03/17/2020 08:09:03 -80.36,-108.93 98.40 03/17/2020 08:09:06 -80.37,-109.02 98.39 2.38 3
6 03/17/2020 08:59:44 80.35, 58.29 81.57 03/17/2020 09:00:01 80.36, 58.41 81.60 2.89 17
7 03/17/2020 09:50:25 -80.34,-134.39 98.45 03/17/2020 09:51:06 -80.36,-134.30 98.42 2.37 41
8 03/17/2020 10:41:05 80.36, 33.14 81.57 03/17/2020 10:42:01 80.35, 33.13 81.56 1.39 56




NCC Satellite Simultaneous Nadir Overpasses (SNOs) Prediction Service
